Helicity
-7 -24 -44 -43 11 10 3 11 14 13 17 19 27 33 39 53 52 38 41 21 22 30 48 58 66 68 93 108 77 29 10 57 95 53 -28 -134 -68 201 217 315 301 269 51 38 -95 51 134
-21 -44 -48 1 -12 -18 -11 -4 9 18 20 20 33 37 49 61 54 44 31 12 16 37 40 55 13 11 94 116 25 13 17 27 43 40 25 27 -103 -70 32 165 276 337 131 85 8 -108 -164
-45 9 4 -4 -16 -19 -12 -6 9 13 17 22 31 41 51 68 53 50 9 12 24 35 46 45 46 40 94 45 66 62 75 103 114 124 68 78 -31 -25 -149 87 86 148 295 250 81 22 -92
-16 9 8 -8 -13 -8 -3 -2 8 15 21 22 24 44 43 71 54 42 10 20 13 34 30 48 -2 108 135 83 71 72 129 139 77 47 99 101 22 -6 11 19 184 77 63 117 70 99 -18
1 -1 1 -9 -5 4 2 1 3 15 24 25 28 40 35 70 53 35 32 14 6 32 20 -26 35 168 86 120 123 111 75 94 130 108 113 32 45 63 27 18 176 152 194 116 73 159 57
2 -5 -7 -3 3 9 9 8 7 12 27 37 34 37 33 71 59 51 48 11 27 67 55 26 78 167 107 131 118 108 95 106 143 123 59 10 25 57 10 84 167 198 101 117 -24 86 110
7 8 4 9 14 16 17 14 15 18 22 35 44 37 37 58 60 65 83 28 43 57 121 74 80 148 149 102 103 102 57 97 125 130 86 50 37 27 35 105 92 165 186 0 0 -10 144
11 12 12 15 16 20 21 19 16 26 28 27 44 48 39 35 40 79 71 77 112 133 108 94 117 148 99 80 72 63 63 132 100 66 65 48 60 33 64 95 114 97 142 216 -32 140 21
10 9 13 15 17 22 24 27 25 29 31 31 45 58 62 29 46 125 84 91 45 121 97 22 112 126 90 71 53 29 92 102 127 116 42 8 50 -3 122 76 79 102 109 120 112 87 34
13 17 20 20 26 27 24 30 39 33 43 40 48 35 95 28 184 119 130 75 102 114 119 87 115 119 116 85 94 60 90 142 91 50 7 -15 13 24 114 9 94 123 87 94 147 253 135
-1 8 19 17 25 21 27 29 39 45 47 34 55 48 33 82 199 183 145 162 132 116 238 30 123 139 95 117 130 115 123 155 75 90 44 19 93 96 80 17 34 91 52 61 67 242 123
-1 1 4 13 19 18 25 31 40 50 47 31 50 43 24 144 141 156 83 143 114 187 160 81 167 104 81 127 67 186 139 129 85 136 110 40 107 76 63 15 55 118 177 152 28 160 182
13 5 10 11 17 23 31 37 40 40 45 33 46 12 69 168 151 82 102 148 285 246 117 134 130 94 57 111 123 127 117 137 107 155 223 176 128 90 90 50 66 56 197 208 176 224 131
27 18 13 24 21 30 32 35 31 35 45 34 39 8 96 143 92 66 126 233 371 177 148 125 129 80 90 85 134 161 149 139 196 182 187 102 100 110 126 128 166 -55 194 256 193 158 219
39 46 33 38 43 49 51 34 48 46 51 39 29 103 102 133 63 75 189 351 196 132 119 142 91 139 124 123 121 164 179 173 134 129 57 153 157 65 111 129 147 65 68 13 197 321 497
58 54 45 45 57 53 51 51 52 55 56 54 120 86 105 99 55 138 214 153 93 122 121 123 125 120 164 160 113 137 168 194 160 131 65 135 107 54 142 139 47 136 37 -26 37 262 399
54 62 48 35 38 66 54 49 53 60 60 73 110 98 95 98 88 48 136 107 107 115 100 111 121 123 147 147 157 145 171 139 44 203 136 42 90 161 67 147 182 82 36 162 49 204 417
47 46 44 37 56 73 75 53 58 52 58 130 119 72 108 108 87 41 131 94 103 128 96 79 93 101 145 128 143 124 161 181 49 77 94 97 96 170 134 45 17 -65 -55 28 189 288 313
60 55 46 43 58 66 93 71 54 55 43 183 133 49 81 97 117 153 119 113 115 109 98 103 108 128 146 125 100 129 131 152 74 35 21 20 67 139 66 20 56 116 224 -73 87 154 212
68 54 54 63 55 48 80 92 72 81 47 152 139 109 102 119 119 188 169 134 134 87 108 101 128 148 162 144 177 108 167 113 116 108 45 24 31 75 -9 -83 -27 29 254 137 -67 57 146
59 66 55 60 59 38 55 89 90 118 57 116 97 183 186 234 163 149 179 151 123 146 152 125 111 129 125 155 160 161 120 86 106 99 41 22 -37 11 -13 -47 -117 4 138 281 22 70 10
63 51 58 52 52 50 44 58 103 171 91 110 131 212 294 249 180 174 144 170 146 109 186 136 157 91 180 175 189 153 124 95 93 79 118 24 12 14 70 69 5 -12 183 215 315 433 288
60 62 60 63 72 64 55 54 82 202 157 159 134 177 271 239 264 243 183 149 164 137 104 155 122 137 114 125 109 140 105 115 86 45 103 87 42 12 31 29 57 65 185 100 177 358 346
57 49 57 86 83 88 63 50 62 117 234 204 192 169 310 330 333 226 162 111 140 123 160 109 103 116 133 113 67 91 62 60 47 38 -3 55 28 -5 22 44 85 30 11 -4 29 199 388
58 46 58 85 71 93 80 70 58 67 222 273 207 185 304 397 335 135 270 194 106 86 128 128 112 135 92 69 51 25 40 42 45 66 3 2 5 -8 33 25 23 48 50 72 66 93 146
58 51 61 80 86 89 95 77 75 61 151 241 235 184 256 348 237 311 160 174 180 122 84 95 72 57 56 46 46 54 56 55 34 30 64 30 13 -8 -11 49 44 33 81 47 -12 62 90
67 62 52 74 81 97 96 96 86 61 237 263 226 196 275 375 214 247 234 163 161 139 144 119 67 51 48 43 46 61 42 81 69 47 39 44 75 27 28 16 33 32 49 -19 85 81 70
61 57 61 73 86 90 95 89 79 136 218 238 213 207 272 352 223 138 125 190 157 104 131 95 106 89 88 88 67 44 84 63 78 88 50 24 35 35 56 44 56 29 -7 20 -12 1 7
53 55 65 77 83 95 90 88 137 203 193 222 223 202 234 300 208 141 105 80 75 78 105 125 134 115 106 111 93 96 118 84 111 108 91 72 38 21 55 41 44 17 -38 -38 -14 -31 -17
Wind_Speed
60 64 62 70 59 62 69 71 75 76 80 85 89 90 89 88 86 80 78 78 73 69 70 69 64 58 50 53 51 46 54 55 53 61 65 69 73 84 105 91 110 118 148 121 105 112 109
65 64 66 58 68 73 76 79 79 79 84 87 91 93 91 88 83 80 79 74 70 69 70 66 52 46 48 60 37 43 46 57 62 61 65 62 70 73 91 109 106 106 118 140 122 119 92
65 47 55 61 71 77 80 83 83 85 88 91 95 95 93 87 82 81 76 73 68 68 66 58 51 41 48 44 38 44 49 50 55 61 71 59 62 69 70 96 104 115 129 119 137 136 117
70 57 62 71 76 79 82 85 86 90 92 96 98 96 95 86 83 79 73 71 68 66 56 48 44 39 50 34 33 46 57 49 47 52 54 65 60 77 86 80 84 112 126 143 136 124 133
65 68 71 77 82 82 85 88 90 93 96 97 98 98 94 87 82 75 73 69 67 63 52 40 41 48 47 40 45 52 59 39 44 48 53 56 57 68 77 96 106 104 131 159 136 114 125
72 77 80 82 84 87 87 90 93 95 96 98 97 97 92 85 80 74 74 60 63 59 60 46 42 56 50 56 56 53 43 38 39 49 59 52 58 74 78 94 125 114 132 136 152 127 115
78 80 82 85 87 87 89 93 94 95 97 99 97 97 88 79 78 72 75 60 72 63 61 52 58 51 51 49 49 49 49 40 26 39 65 66 65 82 88 104 110 100 108 134 135 121 111
79 83 84 86 87 90 92 95 96 97 98 97 96 96 83 78 72 64 62 71 61 48 65 45 51 48 44 59 60 46 62 38 30 37 67 55 72 73 75 88 101 115 114 108 130 106 111
81 82 84 85 87 90 93 96 99 97 97 96 98 95 79 75 62 61 59 65 47 47 55 52 52 55 69 64 53 55 39 30 18 17 55 65 70 70 68 72 92 113 114 121 94 115 109
80 82 83 85 87 90 93 96 100 97 98 99 100 92 78 77 60 61 63 55 45 43 63 69 65 55 68 64 50 32 29 26 22 15 37 55 40 53 63 75 79 105 100 104 108 104 131
84 86 86 86 89 91 95 98 100 99 100 101 99 85 74 72 60 65 56 47 42 45 93 71 63 48 63 67 49 50 34 37 27 13 33 51 62 57 58 70 73 93 94 101 112 104 113
86 90 91 92 89 93 96 97 100 101 99 100 99 80 71 70 56 49 49 40 42 74 90 68 64 69 71 69 56 41 45 57 32 26 19 43 52 51 51 43 67 49 57 82 92 105 139
87 92 91 93 93 95 95 95 99 102 98 99 95 72 69 65 71 50 44 48 77 95 66 71 75 71 61 71 59 52 54 66 84 40 59 41 35 36 37 34 61 81 54 83 100 101 128
87 90 90 88 96 97 95 95 100 101 98 98 88 63 67 65 58 51 48 68 94 78 70 61 63 57 67 75 61 56 55 62 64 60 21 37 29 29 37 36 49 79 70 71 90 93 106
87 85 85 87 86 90 94 94 101 99 97 96 81 58 72 75 62 54 64 90 85 79 66 72 67 64 66 65 55 58 55 53 66 38 32 26 29 31 36 43 45 64 78 72 63 60 92
82 83 80 80 83 84 88 98 96 100 97 95 76 63 77 77 65 69 78 83 73 62 64 59 73 60 63 61 59 58 53 47 43 31 17 14 33 29 29 34 44 46 56 57 59 72 89
77 79 81 85 89 85 87 94 94 98 99 93 73 72 74 78 60 81 97 81 67 55 62 58 59 55 54 56 48 50 49 37 50 27 17 30 31 33 25 19 48 48 44 45 50 49 79
75 77 76 80 84 83 85 92 93 98 100 89 78 81 70 77 93 86 93 77 58 64 58 51 46 49 56 47 45 45 45 44 39 34 31 8 33 32 28 18 18 33 44 41 42 47 50
75 77 77 75 77 83 85 88 91 96 102 84 83 69 60 81 103 101 83 73 68 67 61 55 48 45 51 49 47 37 40 30 20 35 54 20 31 32 33 32 21 30 46 52 54 39 33
79 82 77 73 71 79 81 84 87 92 95 79 79 87 73 74 80 90 88 78 83 55 53 51 42 42 47 50 43 32 34 31 18 12 50 42 26 18 21 26 27 30 31 40 49 44 37
78 82 76 74 70 75 77 78 82 86 89 75 79 78 72 91 90 86 79 78 79 76 53 48 48 47 45 50 49 44 34 31 28 35 51 53 28 17 16 22 20 20 23 26 29 35 40
74 74 70 69 71 75 75 76 77 77 80 74 80 79 68 74 74 84 81 79 74 69 53 51 53 45 45 49 43 33 29 28 33 31 48 54 20 31 35 31 26 23 24 22 28 29 28
68 67 67 66 69 74 76 74 76 67 73 71 64 60 66 74 77 83 78 78 66 62 46 43 46 50 48 48 31 16 14 20 22 33 37 33 17 31 31 35 40 39 34 28 27 24 37
68 68 65 67 69 70 72 73 72 64 58 63 60 64 70 82 77 76 72 68 63 52 47 39 44 50 40 29 27 36 45 45 41 42 45 31 30 34 35 34 34 33 30 28 29 33 31
67 65 65 68 67 67 68 72 71 70 51 55 56 62 65 79 74 70 67 67 57 44 44 39 42 39 34 40 47 44 45 43 39 40 58 51 36 28 31 30 30 34 36 41 43 45 39
63 63 65 65 65 67 65 66 69 66 50 48 49 49 55 72 73 63 70 55 65 52 45 42 40 40 54 51 50 52 48 48 41 41 49 54 54 36 27 27 34 34 43 44 35 51 46
63 65 65 64 66 67 65 66 66 63 48 49 48 44 51 65 60 56 61 60 46 40 41 45 53 46 54 59 58 54 46 48 44 45 52 56 48 49 38 24 27 40 47 34 43 48 54
63 64 64 64 67 66 67 67 65 59 54 49 52 37 47 59 58 44 41 43 40 36 42 45 49 46 50 61 54 54 47 50 44 43 46 47 47 46 38 31 29 50 39 39 44 49 53
64 68 66 66 65 65 68 68 67 60 53 48 57 44 38 43 47 44 34 26 24 24 27 34 39 43 44 51 50 49 52 47 47 48 42 43 42 46 41 40 35 38 36 41 45 51 52
Wind_Direction
351 353 343 356 29 25 17 15 11 9 6 2 360 359 358 357 356 356 354 351 350 351 349 346 347 351 355 347 336 340 335 326 318 312 300 290 275 266 253 254 247 245 241 244 247 247 247
359 347 352 32 19 14 11 8 9 9 5 3 1 359 358 358 358 357 355 354 354 354 352 352 354 1 358 346 359 352 343 330 318 311 300 290 280 269 260 253 249 245 246 242 245 243 249
352 42 37 28 17 10 8 6 7 6 4 2 0 359 358 359 359 358 357 357 356 355 355 358 9 9 357 353 2 350 340 330 324 312 297 290 281 268 260 257 252 246 244 245 240 239 243
21 39 31 20 14 10 8 6 6 4 3 2 360 1 360 0 360 360 360 359 357 357 358 6 6 10 354 5 359 353 345 333 330 317 304 293 283 267 257 256 256 242 241 237 236 238 236
32 27 22 13 8 9 6 5 4 3 2 2 1 1 1 2 2 3 2 1 4 6 7 11 19 9 4 9 359 351 348 345 335 327 314 296 284 266 263 245 244 239 234 231 234 235 233
22 15 9 7 8 6 7 5 3 3 3 3 3 3 2 3 5 6 6 8 13 21 22 30 23 9 6 359 355 350 0 347 329 330 312 296 275 264 259 239 235 236 232 232 230 229 234
15 12 11 9 7 8 7 4 4 4 4 3 3 3 3 4 6 9 12 18 14 15 18 15 5 6 0 359 352 356 357 359 348 334 301 285 271 260 256 244 237 239 237 233 231 231 232
16 11 11 10 10 9 8 5 4 4 4 4 4 3 5 5 7 14 20 18 20 13 7 22 12 8 10 2 355 5 360 358 356 338 277 283 267 267 271 245 234 233 235 234 231 232 230
16 14 13 12 11 10 8 6 4 5 6 5 4 4 7 7 11 17 20 19 21 28 17 20 19 18 9 10 8 11 17 17 11 250 266 271 266 276 271 241 235 230 230 228 232 225 231
18 16 14 12 11 10 8 6 5 6 6 5 4 5 8 8 19 15 16 17 26 32 17 15 18 24 16 14 29 22 37 32 42 56 256 278 283 279 264 242 233 229 227 227 226 224 223
18 16 14 13 12 10 8 7 6 7 6 6 5 7 12 14 12 14 12 21 34 33 8 11 19 23 12 24 24 34 45 36 43 24 14 279 261 265 267 250 232 229 225 227 224 228 222
18 15 13 13 13 10 9 8 8 7 7 7 6 10 13 16 18 16 15 36 33 17 10 15 16 10 17 25 31 36 42 39 42 41 55 271 257 256 263 272 220 215 220 219 222 228 220
18 14 15 14 13 11 10 10 8 8 8 8 7 14 18 18 13 12 29 29 15 13 13 12 8 13 20 21 30 30 31 31 28 13 325 301 265 278 284 253 216 216 218 208 217 217 220
18 16 16 17 15 13 12 11 9 9 9 8 9 18 21 21 17 22 31 19 13 12 13 7 11 16 24 24 26 28 33 35 36 35 299 308 260 276 284 245 218 212 213 212 214 219 215
17 18 17 18 18 16 15 13 10 10 10 9 12 22 23 18 22 29 26 17 14 13 11 10 15 22 24 23 25 30 33 39 34 16 319 282 254 250 281 236 222 212 214 224 229 231 210
17 17 17 16 17 17 16 13 12 12 11 11 16 22 21 19 30 34 25 20 19 21 14 21 19 25 19 20 26 28 35 43 29 13 344 209 251 275 274 237 222 216 213 217 227 216 209
16 15 14 14 12 14 15 14 13 13 12 13 22 22 23 20 35 28 20 19 20 22 21 24 24 24 23 18 23 33 37 43 329 1 4 337 260 267 253 260 225 218 223 235 230 232 218
17 14 13 12 13 14 14 13 13 12 12 18 21 20 23 24 22 23 17 17 22 21 25 29 31 30 26 18 30 38 35 39 321 331 325 42 261 254 243 238 239 214 230 234 232 229 237
14 13 12 11 12 12 13 13 14 13 13 16 18 21 26 27 17 16 17 21 20 19 23 28 31 35 23 28 32 31 36 24 342 325 330 300 284 253 239 232 267 230 248 239 231 244 245
12 11 11 11 11 10 11 13 13 13 13 20 19 16 19 24 21 15 14 17 15 25 27 27 31 32 24 24 31 35 31 37 348 23 328 64 319 279 234 235 245 246 261 248 237 240 246
9 9 10 11 10 9 9 10 12 14 15 21 21 18 20 9 13 12 13 15 16 18 26 32 33 25 23 27 28 38 24 23 45 51 333 36 325 311 269 263 293 295 272 260 240 250 241
8 9 10 10 10 9 8 9 10 14 16 21 18 15 14 8 11 11 14 13 16 17 23 25 24 17 24 25 25 8 12 30 49 50 43 353 247 271 266 268 286 289 300 278 251 261 248
6 7 7 8 8 8 8 8 8 13 18 16 17 16 13 9 10 10 12 9 9 14 25 25 18 19 22 21 7 343 32 58 66 54 49 58 103 286 285 275 264 257 280 268 253 272 252
3 4 6 6 5 5 6 6 6 9 16 15 14 13 10 5 7 5 3 7 8 17 14 17 26 24 22 359 29 49 44 47 55 54 47 56 66 10 282 287 263 270 298 274 257 262 276
2 2 2 3 3 3 3 5 6 9 9 13 15 12 9 1 1 3 9 5 10 13 20 24 26 23 20 32 35 37 39 41 47 46 30 38 55 73 345 304 277 278 292 273 260 255 284
359 360 0 360 0 0 0 1 2 2 8 12 9 13 8 1 6 6 1 11 6 14 21 24 25 28 26 29 28 26 26 26 29 29 26 25 19 46 49 343 284 294 290 286 279 257 294
356 357 358 358 358 359 359 359 359 359 14 11 9 12 7 359 4 8 6 5 15 18 17 16 15 24 24 19 20 18 18 13 13 10 6 2 8 5 9 12 322 305 296 297 272 269 290
354 355 355 356 357 358 358 358 359 4 9 9 4 10 6 360 356 6 8 9 11 10 10 8 14 21 17 15 15 12 10 6 4 1 358 358 356 353 353 348 321 308 307 293 291 293 293
353 354 354 356 357 358 358 358 3 6 8 10 3 12 7 1 0 2 3 359 1 7 6 16 12 11 15 12 10 7 359 360 354 348 354 346 347 339 336 326 326 322 317 306 306 297 298